1339718425036,2.61979
1339718485036,2.62329
1339718545036,2.60675
1339718605036,2.61225
1339718665036,2.59965
1339718725036,2.59073
1339718785036,2.58084
1339718845036,2.59036
1339718905036,2.63596
1339718965036,2.60562
1339719025036,2.60924
1339719085036,2.57406
1339719145036,2.60913
1339719205036,2.60669
1339719265036,2.58129
1339719325036,2.60838
1339719385036,2.61145
1339719445036,2.60489
1339719505036,2.58767
1339719565036,2.63037
1339719625036,2.59339
1339719685036,2.60966
1339719745036,2.58683
1339719805036,2.62239
1339719865036,2.61501
1339719925036,2.59890
1339719985036,2.60498
1339720045036,2.61214
1339720105036,2.60622
1339720165036,2.59500
1339720225036,2.61739
1339720285036,2.61140
1339720345036,2.61674
1339720405036,2.62475
1339720465036,2.63149
1339720525036,2.58900
1339720585036,2.63204
1339720645036,2.61532
1339720705036,2.62980
1339720765036,2.62852
1339720825036,2.64364
1339720885036,2.63718
1339720945036,2.64582
1339721005036,2.59739
1339721065036,2.64317
1339721125036,2.63526
1339721185036,2.64402
1339721245036,2.63646
1339721305036,2.65651
1339721365036,2.66441
1339721425036,2.68565
1339721485036,2.65760
1339721545036,2.62774
1339721605036,2.65957
1339721665036,2.66459
1339721725036,2.65648
1339721785036,2.63925
1339721845036,2.67786
1339721905036,2.67552
1339721965036,2.66512
1339722025046,2.67637
1339722085046,2.67724
1339722145046,2.65847
1339722205046,2.69462
1339722265046,2.65404
1339722325046,2.64722
1339722385046,2.67783
1339722445046,2.64401
1339722505046,2.64993
1339722565046,2.65912
1339722625046,2.65806
1339722685046,2.64287
1339722745046,2.65485
1339722805046,2.66641
1339722865046,2.67968
1339722925046,2.64741
1339722985046,2.66932
1339723045046,2.64858
1339723105046,2.65083
1339723165046,2.64019
1339723225046,2.62722
1339723285046,2.63435
1339723345046,2.64589
1339723405046,2.63422
1339723465046,2.64942
1339723525046,2.62335
1339723585046,2.64440
1339723645046,2.62619
1339723705046,2.62500
1339723765046,2.62003
1339723825046,2.60957
1339723885046,2.62694
1339723945046,2.60888
1339724005046,2.61642
1339724065046,2.62800
1339724125046,2.62277
1339724185046,2.61678
1339724245046,2.59369
1339724305046,2.62539
1339724365046,2.63247
1339724425046,2.60944
1339724485046,2.61543
1339724545046,2.60575
1339724605046,2.61393
1339724665046,2.59351
1339724725046,2.61439
1339724785046,2.60959
1339724845046,2.61736
1339724905046,2.60903
1339724965046,2.60268
1339725025046,2.59997
1339725085046,2.59362
1339725145046,2.58660
1339725205046,2.57761
1339725265046,2.59094
1339725325046,2.57517
1339725385046,2.58713
1339725445046,2.56020
1339725505046,2.58518
1339725565046,2.56429
1339725625056,2.59271
1339725685056,2.59940
1339725745056,2.61575
1339725805056,2.57347
1339725865056,2.57864
1339725925056,2.57837
1339725985056,2.59236
1339726045056,2.59291
1339726105056,2.56239
1339726165056,2.56854
1339726225056,2.55122
1339726285056,2.56875
1339726345056,2.56959
1339726405056,2.55891
1339726465056,2.55602
1339726525056,2.57241
1339726585056,2.56148
1339726645056,2.57376
1339726705056,2.57806
1339726765056,2.57166
1339726825056,2.56170
1339726885056,2.57051
1339726945056,2.54734
1339727005056,2.55873
1339727065056,2.55731
1339727125056,2.54985
1339727185056,2.57646
1339727245056,2.53854
1339727305056,2.56182
1339727365056,2.53086
1339727425056,2.54745
1339727485056,2.54828
1339727545056,2.52729
1339727605056,2.57722
1339727665056,2.56799
1339727725056,2.55261
1339727785056,2.77386
1339727845056,2.51920
1339727905056,2.54106
1339727965056,2.53522
1339728025056,2.54766
1339728085056,2.53783
1339728145056,2.54299
1339728205056,2.53772
1339728265056,2.55375
1339728325056,2.55114
1339728385056,2.53804
1339728445056,2.54888
1339728505056,2.53887
1339728565056,2.53882
1339728625056,2.55693
1339728685056,2.53778
1339728745056,2.53904
1339728805056,2.52402
1339728865056,2.53582
1339728925056,2.54660
1339728985056,2.54667
1339729045056,2.50389
1339729105056,2.53936
1339729165056,2.53528
1339729225066,2.55280
1339729285066,2.52588
1339729345066,2.53861
1339729405066,2.53878
1339729465066,2.54043
1339729525066,2.51383
1339729585066,2.51401
1339729645066,2.53506
1339729705066,2.53995
1339729765066,2.50933
1339729825066,2.53834
1339729885066,2.52384
1339729945066,2.51818
1339730005066,2.51817
1339730065066,2.54119
1339730125066,2.50723
1339730185066,2.51907
1339730245066,2.52626
1339730305066,2.50565
1339730365066,2.50340
1339730425066,2.50691
1339730485066,2.53160
1339730545066,2.51103
1339730605066,2.51054
1339730665066,2.51570
1339730725066,2.53086
1339730785066,2.50290
1339730845066,2.51186
1339730905066,2.50535
1339730965066,2.52677
1339731025066,2.49546
1339731085066,2.51475
1339731145066,2.50657
1339731205066,2.49359
1339731265066,2.52591
1339731325066,2.50802
1339731385066,2.51010
1339731445066,2.50440
1339731505066,2.50863
1339731565066,2.51076
1339731625066,2.51846
1339731685066,2.50324
1339731745066,2.49079
1339731805066,2.50305
1339731865066,2.47056
1339731925066,2.48470
1339731985066,2.50749
1339732045066,2.48748
1339732105066,2.48341
1339732165066,2.50008
1339732225066,2.50462
1339732285066,2.48471
1339732345066,2.46812
1339732405066,2.46796
1339732465066,2.49037
1339732525066,2.47979
1339732585066,2.49136
1339732645066,2.48608
1339732705066,2.48651
1339732765066,2.46080
1339732825076,2.48902
1339732885076,2.48775
1339732945076,2.49425
1339733005076,2.49552
1339733065076,2.47050
1339733125076,2.46505
1339733185076,2.46848
1339733245076,2.45433
1339733305076,2.48145
1339733365076,2.46263
1339733425076,2.49364
1339733485076,2.49197
1339733545076,2.50367
1339733605076,2.49465
1339733665076,2.47555
1339733725076,2.45680
1339733785076,2.45670
1339733845076,2.47706
1339733905076,2.45982
1339733965076,2.47964
1339734025076,2.45296
1339734085076,2.45739
1339734145076,2.46568
1339734205076,2.46991
1339734265076,2.45549
1339734325076,2.47728
1339734385076,2.49960
1339734445076,2.43748
1339734505076,2.45088
1339734565076,2.44580
1339734625076,2.44871
1339734685076,2.47082
1339734745076,2.44714
1339734805076,2.43098
1339734865076,2.45083
1339734925076,2.45735
1339734985076,2.46926
1339735045076,2.45930
1339735105076,2.46044
1339735165076,2.51973
1339735225076,2.46143
1339735285076,2.44428
1339735345076,2.45066
1339735405076,2.45813
1339735465076,2.43497
1339735525076,2.45806
1339735585076,2.46827
1339735645076,2.42361
1339735705076,2.44923
1339735765076,2.47380
1339735825076,2.43114
1339735885076,2.43428
1339735945076,2.43988
1339736005076,2.43407
1339736065076,2.44335
1339736125076,2.45135
1339736185076,2.42886
1339736245076,2.41630
1339736305076,2.42504
1339736365076,2.42251
1339736425085,2.44499
1339736485085,2.44678
1339736545085,2.30432
1339736605085,2.44238
1339736665085,2.43324
1339736725085,2.42342
1339736785085,2.42549
1339736845085,2.42998
1339736905085,2.42570
1339736965085,2.43061
1339737025085,2.43985
1339737085085,2.42135
1339737145085,2.41384
1339737205085,2.42910
1339737265085,2.42791
1339737325085,2.43377
1339737385085,2.42981
1339737445085,2.43060
1339737505085,2.44294
1339737565085,2.42884
1339737625085,2.40935
1339737685085,2.41971
1339737745085,2.41065
1339737805085,2.41580
1339737865085,2.38358
1339737925085,2.40105
1339737985085,2.42035
1339738045085,2.42436
1339738105085,2.39698
1339738165085,2.42679
1339738225085,2.39989
1339738285085,2.40975
1339738345085,2.43624
1339738405085,2.43640
1339738465085,2.40851
1339738525085,2.40095
1339738585085,2.43142
1339738645085,2.40461
1339738705085,2.40084
1339738765085,2.42201
1339738825085,2.42532
1339738885085,2.42554
1339738945085,2.41244
1339739005085,2.40741
1339739065085,2.41422
1339739125085,2.42172
1339739185085,2.40147
1339739245085,2.42979
1339739305085,2.41417
1339739365085,2.40683
1339739425085,2.40178
1339739485085,2.39617
1339739545085,2.42883
1339739605085,2.40269
1339739665085,2.39521
1339739725085,2.38976
1339739785085,2.40366
1339739845085,2.40628
1339739905085,2.38965
1339739965085,2.40458
1339740025094,2.38287
1339740085094,2.40210
1339740145094,2.39241
1339740205095,2.41238
1339740265095,2.41431
1339740325094,2.39826
1339740385094,2.38746
1339740445094,2.40591
1339740505094,2.38616
1339740565094,2.39709
1339740625094,2.40536
1339740685094,2.39362
1339740745094,2.40816
1339740805094,2.40420
1339740865094,2.37283
1339740925094,2.38047
1339740985094,2.41307
1339741045094,2.38180
1339741105094,2.37976
1339741165094,2.38107
1339741225094,2.37442
1339741285094,2.38620
1339741345094,2.38791
1339741405094,2.38834
1339741465094,2.39058
1339741525094,2.37407
1339741585095,2.36879
1339741645094,2.40944
1339741705094,2.37680
1339741765094,2.41334
1339741825094,2.37940
1339741885094,2.38492
1339741945094,2.37431
1339742005094,2.38586
1339742065094,2.37798
1339742125094,2.37279
1339742185094,2.38288
1339742245094,2.39172
1339742305094,2.37412
1339742365094,2.37315
1339742425094,2.38006
1339742485094,2.36177
1339742545094,2.37520
1339742605094,2.36733
1339742665094,2.37096
1339742725094,2.38488
1339742785094,2.37467
1339742845094,2.38538
1339742905095,2.37644
1339742965095,2.38788
1339743025094,2.37905
1339743085094,2.36512
1339743145094,2.39212
1339743205094,2.36911
1339743265094,2.39341
1339743325094,2.36171
1339743385094,2.37471
1339743445094,2.37409
1339743505094,2.39067
1339743565094,2.39737
1339743625104,2.38254
1339743685104,2.39286
1339743745104,2.39632
1339743805104,2.37569
1339743865104,2.39536
1339743925104,2.38884
1339743985104,2.38808
1339744045104,2.38902
1339744105104,2.38236
1339744165104,2.38411
1339744225104,2.38333
1339744285104,2.37977
1339744345104,2.29786
1339744405104,2.37576
1339744465104,2.36427
1339744525104,2.35766
1339744585104,2.38330
1339744645104,2.38777
1339744705104,2.37958
1339744765104,2.39382
1339744825104,2.35722
1339744885104,2.38230
1339744945104,2.34884
1339745005104,2.36564
1339745065104,2.39516
1339745125104,2.41195
1339745185104,2.36067
1339745245104,2.36688
1339745305104,2.37094
1339745365104,2.38008
1339745425104,2.36478
1339745485104,2.39204
1339745545104,2.35903
1339745605104,2.37167
1339745665104,2.36811
1339745725104,2.36244
1339745785104,2.34658
1339745845104,2.38168
1339745905104,2.37408
1339745965104,2.34580
1339746025104,2.35865
1339746085104,2.35333
1339746145104,2.35814
1339746205104,2.35564
1339746265104,2.35259
1339746325104,2.34426
1339746385104,2.37609
1339746445104,2.34722
1339746505104,2.35200
1339746565104,2.41475
1339746625104,2.34015
1339746685104,2.34267
1339746745104,2.35698
1339746805104,2.34714
1339746865104,2.33799
1339746925104,2.33023
1339746985104,2.33383
1339747045104,2.36351
1339747105104,2.36470
1339747165104,2.35731
1339747225113,2.36211
1339747285113,2.35307
1339747345113,2.35169
1339747405113,2.36133
1339747465113,2.39618
1339747525113,2.36197
1339747585113,2.36164
1339747645113,2.34493
1339747705113,2.36823
1339747765113,2.37458
1339747825113,2.32653
1339747885113,2.37554
1339747945113,2.36601
1339748005113,2.34166
1339748065113,2.37892
1339748125113,2.36668
1339748185113,2.35976
1339748245113,2.36052
1339748305113,2.34573
1339748365113,2.37331
1339748425113,2.35051
1339748485113,2.36468
1339748545113,2.35115
1339748605113,2.35517
1339748665113,2.36115
1339748725113,2.38771
1339748785113,2.36580
1339748845113,2.34995
1339748905113,2.36299
1339748965113,2.37584
1339749025113,2.37421
1339749085113,2.36645
1339749145113,2.38478
1339749205113,2.35824
1339749265113,2.35123
1339749325113,2.36378
1339749385113,2.34537
1339749445113,2.35654
1339749505113,2.36454
1339749565113,2.35776
1339749625113,2.38342
1339749685113,2.34601
1339749745113,2.37148
1339749805113,2.37886
1339749865113,2.35139
1339749925113,2.35836
1339749985113,2.36497
1339750045113,2.35753
1339750105113,2.35494
1339750165113,2.35672
1339750225113,2.33631
1339750285113,2.34806
1339750345113,2.36658
1339750405113,2.35034
1339750465113,2.35152
1339750525113,2.35424
1339750585113,2.37186
1339750645113,2.33471
1339750705113,2.34799
1339750765113,2.34002
1339750825122,2.33928
1339750885122,2.32807
1339750945122,2.35466
1339751005122,2.33973
1339751065122,2.36039
1339751125122,2.33157
1339751185122,2.33208
1339751245122,2.33326
1339751305122,2.52063
1339751365122,2.36445
1339751425122,2.35976
1339751485122,2.55234
1339751545122,2.33963
1339751605122,2.35505
1339751665122,2.37907
1339751725122,2.34234
1339751785122,2.35490
1339751845122,2.37215
1339751905122,2.33803
1339751965122,2.35228
1339752025122,2.32504
1339752085122,2.36186
1339752145122,2.33719
1339752205122,2.34536
1339752265122,2.35049
1339752325122,2.36419
1339752385122,2.36999
1339752445122,2.35271
1339752505122,2.38593
1339752565122,2.34858
1339752625122,2.35411
1339752685122,2.36369
1339752745122,2.35307
1339752805122,2.35099
1339752865122,2.38141
1339752925122,2.34565
1339752985122,2.36516
1339753045122,2.34880
1339753105122,2.36414
1339753165122,2.36933
1339753225122,2.35290
1339753285122,2.36887
1339753345122,2.35021
1339753405122,2.36925
1339753465122,2.37995
1339753525122,2.36022
1339753585122,2.33931
1339753645122,2.36919
1339753705122,2.36815
1339753765122,2.35614
1339753825122,2.36785
1339753885122,2.16571
1339753945122,2.36828
1339754005122,2.35611
1339754065122,2.36564
1339754125122,2.37274
1339754185122,2.36346
1339754245122,2.36597
1339754305122,2.35336
1339754365122,2.37654
1339754425131,2.35657
1339754485131,2.36929
1339754545131,2.37074
1339754605131,2.37165
1339754665131,2.37259
1339754725131,2.36185
1339754785131,2.35820
1339754845131,2.34983
1339754905131,2.36837
1339754965131,2.37224
1339755025131,2.38579
1339755085131,2.37428
1339755145131,2.37809
1339755205131,2.41872
1339755265131,2.37687
1339755325131,2.37466
1339755385131,2.36624
1339755445131,2.38364
1339755505131,2.39843
1339755565131,2.40529
1339755625131,2.35970
1339755685131,2.38172
1339755745131,2.39044
1339755805131,2.38421
1339755865131,2.39545
1339755925131,2.39370
1339755985131,2.38732
1339756045131,2.39683
1339756105131,2.41399
1339756165131,2.39347
1339756225131,2.38306
1339756285131,2.42664
1339756345131,2.39771
1339756405131,2.40353
1339756465131,2.39623
1339756525131,2.39485
1339756585131,2.38236
1339756645131,2.37746
1339756705131,2.40449
1339756765131,2.38678
1339756825131,2.37741
1339756885131,2.39227
1339756945131,2.37626
1339757005131,2.38484
1339757065131,2.41283
1339757125131,2.38931
1339757185131,2.42219
1339757245131,2.38050
1339757305131,2.41590
1339757365131,2.40376
1339757425131,2.41934
1339757485131,2.41715
1339757545131,2.43294
1339757605131,2.44514
1339757665131,2.41565
1339757725131,2.41996
1339757785131,2.45875
1339757845131,2.41829
1339757905131,2.42346
1339757965131,2.43099
1339758025141,2.40996
1339758085141,2.42075
1339758145141,2.41845
1339758205141,2.42929
1339758265141,2.43124
1339758325141,2.41769
1339758385141,2.42379
1339758445141,2.42598
1339758505141,2.43093
1339758565141,2.41033
1339758625141,2.40432
1339758685141,2.32633
1339759225141,2.42347
1339759285141,2.37327
1339759345141,2.42159
1339759405141,2.42345
1339759465141,2.41975
1339759525141,2.41800
1339759585141,2.41565
1339759645141,2.39756
1339759705141,2.41869
1339759765141,2.41473
1339759825141,2.41689
1339759885141,2.41590
1339759945141,2.44068
1339760005141,2.44086
1339760065141,2.41259
1339760125141,2.41660
1339760185141,2.41265
1339760245141,2.41287
1339760305141,2.40864
1339760365141,2.43741
1339760425141,2.41747
1339760485141,2.41903
1339760545141,2.43285
1339760605141,2.42800
1339760665141,2.41543
1339760725141,2.42053
1339760785141,2.43101
1339760845141,2.40507
1339760905141,2.40551
1339760965141,2.42803
1339761025141,2.42119
1339761085141,2.42365
1339761145141,2.45413
1339761205141,2.44312
1339761265141,2.42699
1339761325141,2.41254
1339761385141,2.43743
1339761445141,2.44979
1339761505141,2.44066
1339761565141,2.43728
1339761625150,2.46079
1339761685150,2.40416
1339761745150,2.46250
1339761805150,2.43705
1339761865150,2.42167
1339761925150,2.42975
1339761985150,2.41427
1339762045150,2.43107
1339762105150,2.43876
1339762165150,2.43147
1339762225150,2.44135
1339762285150,2.44424
1339762345150,2.45212
1339762405150,2.41093
1339762465150,2.43176
1339762525150,2.42268
1339762585150,2.43432
1339762645150,2.43439
1339762705150,2.43189
1339762765150,2.42453
1339762825150,2.44042
1339762885150,2.43722
1339762945150,2.44577
1339763005150,2.43187
1339763065150,2.34896
1339763125150,2.38790
1339763185150,2.43649
1339763245150,2.41042
1339763305150,2.41211
1339763365150,2.43082
1339763425150,2.44961
1339763485150,2.43624
1339763545150,2.43059
1339763605150,2.42567
1339763665150,2.44093
1339763725150,2.43539
1339763785150,2.41464
1339763845150,2.41824
1339763905150,2.42396
1339763965150,2.45266
1339764025150,2.41703
1339764085150,2.42623
1339764145150,2.38658
1339764205150,2.41786
1339764265150,2.44077
1339764325150,2.44879
1339764385150,2.44527
1339764445150,2.44469
1339764505150,2.45037
1339764565150,2.42111
1339764625150,2.41341
1339764685150,2.65703
1339764745150,2.44820
1339764805150,2.40542
1339764865150,2.41284
1339764925150,2.42168
1339764985150,2.42594
1339765045150,2.42883
1339765105150,2.44835
1339765165150,2.43630
1339765225159,2.43320
1339765285159,2.41269
1339765345159,2.40378
1339765405159,2.41101
1339765465159,2.42451
1339765525159,2.41474
1339765585159,2.41890
1339765645159,2.39381
1339765705159,2.41528
1339765765159,2.37830
1339765825159,2.42447
1339765885159,2.44387
1339765945159,2.41876
1339766005159,2.39610
1339766065159,2.40699
1339766125159,2.44299
1339766185159,2.43918
1339766245159,2.40836
1339766305159,2.43101
1339766365159,2.41174
1339766425159,2.42463
1339766485159,2.43873
1339766545159,2.44292
1339766605159,2.47629
1339766665159,2.43969
1339766725159,2.43234
1339766785159,2.45232
1339766845159,2.47555
1339766905159,2.44059
1339766965159,2.45118
1339767025159,2.45750
1339767085159,2.44845
1339767145159,2.46442
1339767205159,2.47351
1339767265159,2.46241
1339767325159,2.41443
1339767385159,2.44937
1339767445159,2.45658
1339767505159,2.46999
1339767565159,2.43949
1339767625159,2.46127
1339767685159,2.42833
1339767745159,2.45778
1339767805159,2.43326
1339767865159,2.42229
1339767925159,2.41127
1339767985159,2.43601
1339768045159,2.42083
1339768105159,2.40746
1339768165159,2.41027
1339768225159,2.42304
1339768285159,2.41343
1339768345159,2.40500
1339768405159,2.48535
1339768465159,2.43155
1339768525159,2.44728
1339768585159,2.42517
1339768645159,2.44815
1339768705159,2.40603
1339768765159,2.38188
1339768825169,2.42125
1339768885169,2.43202
1339768945169,2.43175
1339769005169,2.46362
1339769065169,2.43920
1339769125169,2.43485
1339769185168,2.43628
1339769245168,2.43538
1339769305168,2.44447
1339769365168,2.43120
1339769425168,2.43743
1339769485168,2.43556
1339769545169,2.44005
1339769605169,2.44785
1339769665169,2.44918
1339769725169,2.45254
1339769785169,2.45441
1339769845169,2.41851
1339769905169,2.43717
1339769965169,2.41651
1339770025169,2.38704
1339770085169,2.41741
1339770145169,2.41012
1339770205169,2.42544
1339770265169,2.40382
1339770325169,2.41370
1339770385169,2.42636
1339770445169,2.41972
1339770505168,2.38832
1339770565168,2.38391
1339770625168,2.41285
1339770685168,2.39754
1339770745168,2.42084
1339770805168,2.41159
1339770865169,2.41087
1339770925169,2.38545
1339770985169,2.41796
1339771045169,2.35225
1339771105169,2.38400
1339771165168,2.41598
1339771225169,2.38689
1339771285169,2.38049
1339771345169,2.36792
1339771405169,2.38518
1339771465169,2.36580
1339771525169,2.35812
1339771585169,2.37064
1339771645169,2.39464
1339771705169,2.36223
1339771765169,2.37975
1339771825169,2.39023
1339771885168,2.38803
1339771945168,2.38275
1339772005168,2.38202
1339772065168,2.37570
1339772125168,2.36060
1339772185168,2.33207
1339772245169,2.38020
1339772305169,2.38836
1339772365169,2.34676
1339772425178,2.35523
1339772485178,2.36218
1339772545178,2.39084
1339772605178,2.35367
1339772665178,2.38109
1339772725178,2.36973
1339772785178,2.35337
1339772845178,2.35005
1339772905178,2.35872
1339772965178,2.36390
1339773025178,2.26878
1339773085178,2.36296
1339773145178,2.37008
1339773205178,2.33305
1339773265178,2.37664
1339773325178,2.33456
1339773385178,2.35829
1339773445178,2.34349
1339773505178,2.35057
1339773565178,2.33708
1339773625178,2.34559
1339773685178,2.34915
1339773745178,2.37252
1339773805178,2.35284
1339773865178,2.34720
1339773925178,2.37629
1339773985178,2.35605
1339774045178,2.35838
1339774105178,2.34390
1339774165178,2.38906
1339774225178,2.38810
1339774285178,2.36068
1339774345178,2.37737
1339774405178,2.36763
1339774465178,2.35696
1339774525178,2.36273
1339774585178,2.38242
1339774645178,2.38519
1339774705178,2.35278
1339774765178,2.34461
1339774825178,2.36272
1339774885178,2.37606
1339774945178,2.36503
1339775005178,2.36871
1339775065178,2.38402
1339775125178,2.34594
1339775185178,2.36375
1339775245178,2.32845
1339775305178,2.35806
1339775365178,2.36802
1339775425178,2.37167
1339775485178,2.36416
1339775545178,2.34487
1339775605178,2.34384
1339775665178,2.36889
1339775725178,2.35568
1339775785178,2.35406
1339775845178,2.34641
1339775905178,2.34926
1339775965178,2.36225
1339776025188,2.34340
1339776085188,2.37232
1339776145188,2.36888
1339776205188,2.34294
1339776265188,2.34101
1339776325188,2.37643
1339776385188,2.35627
1339776445188,2.36238
1339776505188,2.34416
1339776565188,2.37201
1339776625188,2.36363
1339776685188,2.37220
1339776745188,2.34055
1339776805188,2.35720
1339776865188,2.36220
1339776925188,2.34778
1339776985188,2.36947
1339777045188,2.35431
1339777105188,2.32401
1339777165188,2.35383
1339777225188,2.35154
1339777285188,2.32998
1339777345188,2.35559
1339777405188,2.33931
1339777465188,2.33534
1339777525188,2.34060
1339777585188,2.36790
1339777645188,2.36239
1339777705188,2.34610
1339777765188,2.33353
1339777825188,2.31694
1339777885188,2.35945
1339777945188,2.33384
1339778005188,2.35369
1339778065188,2.31427
1339778125188,2.34757
1339778185188,2.30338
1339778245188,2.30765
1339778305188,2.35839
1339778365188,2.33106
1339778425188,2.34356
1339778485188,2.34020
1339778545188,2.34759
1339778605188,2.32736
1339778665188,2.33177
1339778725188,2.34563
1339778785188,2.33242
1339778845188,2.32220
1339778905188,2.34436
1339778965188,2.34350
1339779025188,2.36380
1339779085188,2.33740
1339779145188,2.35329
1339779205188,2.33954
1339779265188,2.34786
1339779325188,2.35982
1339779385188,2.32271
1339779445188,2.30282
1339779505188,2.34605
1339779565188,2.36097
1339779625198,2.33906
1339779685198,2.33774
1339779745198,2.32747
1339779805198,2.32658
1339779865198,2.34874
1339779925198,2.34571
1339779985198,2.33083
1339780045198,2.34107
1339780105198,2.34494
1339780165198,2.34788
1339780225198,2.34512
1339780285198,2.33081
1339780345198,2.32989
1339780405198,2.33952
1339780465198,2.33954
1339780525198,2.34280
1339780585198,2.34015
1339780645198,2.32204
1339780705198,2.31947
1339780765198,2.35519
1339780825198,2.34568
1339780885198,2.35206
1339780945198,2.35402
1339781005198,2.34411
1339781065198,2.36405
1339781125198,2.35049
1339781185198,2.35611
1339781245198,2.33378
1339781305198,2.33243
1339781365198,2.35049
1339781425198,2.33895
1339781485198,2.35687
1339781545198,2.32495
1339781605198,2.33341
1339781665198,2.28987
1339781725198,2.33528
1339781785198,2.32902
1339781845198,2.34271
1339781905198,2.34171
1339781965198,2.34623
1339782025198,2.34051
1339782085198,2.34510
1339782145198,2.30011
1339782205198,2.33702
1339782265198,2.34346
1339782325198,2.37261
1339782385198,2.31473
1339782445198,2.31530
1339782505198,2.34794
1339782565198,2.36499
1339782625198,2.34771
1339782685198,2.35607
1339782745198,2.34739
1339782805198,2.36153
1339782865198,2.32580
1339782925198,2.35827
1339782985198,2.36337
1339783045198,2.31788
1339783105198,2.34623
1339783165198,2.37100
1339783225208,2.36001
1339783285208,2.33394
1339783345208,2.38116
1339783405208,2.37580
1339783465208,2.33908
1339783525208,2.33670
1339783585208,2.35079
1339783645208,2.33307
1339783705208,2.35389
1339783765208,2.34356
1339783825208,2.35945
1339783885208,2.33365
1339783945208,2.34423
1339784005208,2.35993
1339784065208,2.36871
1339784125208,2.36943
1339784185208,2.39686
1339784245208,2.35403